Theta_e
350 362 363 363 361 360 362 364 365 365 363 362 362 363 363 362 362 361 362 362 361 360 359 359 359 358 357 356 355 356 356 356 357 357 356 355 354 353 351 349 348 344 349
353 362 361 363 361 359 361 363 364 365 365 364 363 364 363 362 361 361 361 360 361 358 357 357 356 357 356 355 354 355 355 355 355 355 356 356 356 354 352 350 347 347 348
353 362 362 363 361 359 360 362 363 363 364 364 364 363 363 362 360 359 360 360 358 358 357 356 354 355 352 351 352 354 354 354 353 353 354 354 355 355 355 353 348 347 348
356 361 361 363 362 359 359 360 362 362 362 362 362 361 361 360 360 359 360 360 357 357 356 356 355 353 352 350 349 349 350 353 354 354 354 355 355 355 353 355 352 350 349
356 360 364 363 362 360 358 359 360 361 361 361 360 360 359 359 360 360 360 360 358 358 358 357 355 354 352 351 349 347 346 346 348 350 353 353 354 355 355 355 356 354 352
355 357 362 363 362 360 358 358 358 359 359 360 359 358 358 358 359 360 359 360 359 357 356 354 353 352 349 347 346 346 346 347 348 345 347 345 342 345 343 347 355 358 357
352 357 362 363 362 360 358 357 357 359 359 360 358 357 357 357 357 358 357 357 357 357 356 353 350 348 347 348 348 348 348 349 344 341 341 341 341 343 342 346 351 354 359
350 354 361 362 362 361 359 358 358 359 359 359 358 358 358 357 357 357 358 359 358 357 354 352 351 350 350 349 350 350 351 352 347 342 342 343 347 346 349 351 352 353 361
351 352 356 359 362 361 360 358 357 358 358 359 359 358 358 358 358 358 358 357 356 355 354 353 353 353 353 352 352 353 353 355 356 351 351 353 350 351 353 354 355 355 357
349 350 352 356 357 358 359 359 357 357 357 357 357 357 357 357 357 358 358 357 357 355 355 355 355 353 353 353 353 354 356 358 359 352 355 349 351 353 355 356 357 359 358
346 349 351 353 355 353 354 359 358 356 356 356 356 356 355 352 355 355 356 354 354 355 356 355 355 353 353 354 354 354 355 353 352 351 349 347 348 347 346 352 355 357 359
343 347 350 355 353 354 352 357 355 353 353 355 355 358 355 355 355 352 354 353 353 353 355 356 355 354 354 354 356 352 349 349 346 346 340 343 344 341 342 345 350 352 355
341 347 349 354 357 351 350 354 352 353 354 356 357 358 358 356 355 351 349 350 351 351 347 351 351 353 354 354 352 349 343 339 337 335 335 340 339 341 343 346 346 348 354
340 346 352 354 356 356 352 351 351 351 354 355 355 357 357 354 353 350 348 349 349 350 351 353 354 354 354 354 344 339 335 334 332 330 332 338 336 340 340 341 343 345 347
343 345 350 354 356 356 355 353 353 353 353 358 356 356 355 352 351 348 350 353 353 354 360 359 358 352 342 335 334 332 330 331 330 328 332 335 331 334 337 338 340 340 341
353 348 350 350 354 354 352 353 356 356 357 355 357 356 354 353 352 349 350 354 355 367 363 359 357 345 337 333 332 330 329 329 327 330 329 333 331 331 332 335 337 338 338
346 352 352 350 354 352 351 352 353 354 355 355 355 357 354 356 357 357 353 357 358 357 356 355 346 340 336 330 327 325 328 330 328 331 331 330 333 333 330 330 332 335 336
354 354 354 349 349 352 353 353 354 354 357 358 355 358 356 357 360 358 357 354 352 353 351 346 343 338 333 332 330 329 325 328 329 331 329 329 331 329 332 330 329 333 336
339 347 350 352 352 353 356 358 359 359 358 357 358 358 358 358 358 357 354 351 347 346 346 342 339 339 333 332 330 326 327 327 329 326 329 329 333 330 329 333 330 332 330
331 332 336 337 341 347 357 356 356 353 352 352 354 356 356 355 353 353 351 348 344 340 339 336 336 333 330 326 322 322 326 326 328 328 329 329 330 331 330 331 331 332 331
323 326 327 329 332 339 344 343 347 345 347 351 351 351 353 353 351 349 347 344 340 337 337 336 333 330 326 327 324 325 325 329 330 328 329 327 329 330 330 329 329 329 331
316 318 321 323 327 329 335 340 341 342 345 346 345 348 349 348 346 345 344 342 341 336 336 334 332 326 327 329 324 323 318 322 325 328 328 327 328 328 327 328 329 331 333
315 315 318 320 322 323 328 330 334 339 342 340 340 341 343 343 343 343 342 340 339 337 332 334 333 333 327 329 329 323 319 315 319 323 327 327 329 328 328 328 329 330 332
312 315 317 318 319 319 322 322 324 323 324 328 331 334 336 340 341 341 341 340 339 336 338 335 335 333 332 326 328 329 330 327 316 314 321 323 327 325 327 326 326 329 331
312 313 315 317 317 318 319 319 316 317 318 320 322 326 331 335 335 336 337 338 338 335 337 336 335 334 331 328 326 325 327 325 325 320 314 317 320 321 323 323 324 326 327
312 312 313 314 316 316 316 316 315 314 315 315 317 317 319 321 327 332 332 333 337 336 335 335 335 334 333 331 327 326 323 320 318 319 316 317 316 318 321 322 325 324 324
Wind_Speed
10 16 12 11 10 9 11 11 12 13 13 12 13 13 13 12 12 11 11 10 8 8 8 8 8 7 7 7 7 6 6 5 5 6 5 5 5 5 4 4 5 6 6
14 16 15 12 12 11 11 13 13 13 13 13 13 12 13 12 12 11 10 8 7 7 7 8 7 7 6 6 6 5 5 4 3 3 4 9 7 4 3 2 4 8 4
15 15 15 12 12 11 12 12 13 13 13 13 13 13 12 12 12 11 10 9 8 7 8 8 7 7 6 5 5 4 3 2 1 2 7 12 8 7 4 4 2 2 3
14 12 13 10 12 12 10 11 11 13 13 13 13 13 13 12 11 11 10 9 8 8 7 7 7 6 5 5 4 3 2 0 2 5 10 1 2 11 3 5 4 5 5
13 12 14 11 11 14 12 10 10 11 11 11 12 11 12 11 10 9 9 8 7 6 5 5 5 5 5 4 2 1 1 2 4 9 8 5 5 11 5 6 8 10 9
13 12 16 13 10 11 12 11 11 10 10 10 10 10 10 10 9 9 8 7 6 5 4 3 4 4 3 2 1 1 3 5 8 12 3 3 7 9 2 6 9 10 10
14 13 15 11 10 12 13 12 12 12 10 10 10 10 9 9 8 7 6 5 5 4 4 3 3 3 2 2 2 3 4 6 11 6 6 5 5 5 4 8 10 11 12
13 13 15 12 11 10 10 10 11 10 10 9 9 8 8 8 7 7 6 5 4 4 3 3 3 3 3 3 3 4 6 8 9 5 6 5 8 2 7 9 9 9 10
12 11 12 14 11 11 11 9 9 10 10 9 8 7 6 6 6 5 5 4 4 3 3 3 3 3 3 4 5 6 7 9 14 4 5 6 8 4 6 7 8 8 8
10 10 10 11 12 11 12 9 10 9 9 8 7 7 8 7 6 7 5 9 6 5 5 5 5 5 6 6 6 7 8 12 15 5 4 8 6 5 6 7 8 8 9
7 8 8 8 8 7 9 10 8 8 7 7 8 7 7 8 10 11 7 5 5 7 7 7 7 7 8 11 9 7 11 8 2 2 2 7 3 4 5 6 7 7 8
9 8 8 8 9 8 6 8 7 7 7 7 7 6 7 4 4 6 2 5 7 8 9 10 9 9 11 10 10 10 8 2 3 1 7 6 6 6 6 7 8 8 8
6 6 7 8 3 7 7 6 5 4 4 5 5 4 4 3 5 6 5 6 7 12 8 12 11 11 3 7 2 2 3 4 3 1 8 5 6 7 7 6 8 7 7
8 12 9 8 7 5 4 5 3 4 3 2 3 5 4 4 3 5 4 4 4 5 5 6 2 5 6 3 3 3 4 6 6 5 5 6 8 7 9 9 8 9 9
8 9 7 7 6 5 3 1 3 3 4 1 3 4 4 4 3 5 4 5 5 5 4 5 4 4 4 5 5 3 3 4 3 2 2 8 5 7 8 9 9 10 10
7 8 10 8 5 5 5 3 2 3 2 3 2 2 4 4 3 4 5 4 6 5 5 5 2 3 2 1 6 4 4 5 5 4 3 6 7 4 6 8 9 10 10
5 4 7 7 6 3 3 4 3 2 3 3 3 4 4 4 4 5 5 6 4 2 2 2 4 4 2 1 2 8 8 6 5 4 4 3 3 10 4 3 7 9 9
10 6 6 3 4 4 2 3 3 4 4 3 4 4 5 5 6 6 6 5 4 4 4 4 3 3 1 3 3 6 8 8 6 4 4 5 3 4 8 5 4 8 8
15 15 13 9 5 3 1 3 2 3 4 3 4 4 4 5 6 6 5 4 4 4 4 5 5 5 5 4 7 9 5 6 5 4 5 5 3 5 5 4 6 8 2
17 16 16 14 14 9 4 2 2 4 3 3 4 4 4 4 5 6 5 5 6 5 5 6 6 7 7 6 7 5 5 5 4 5 6 6 6 6 6 7 7 2 8
21 19 18 16 14 11 8 5 6 6 4 3 4 6 6 5 4 4 5 5 6 6 7 7 7 7 7 6 7 9 7 7 8 7 7 7 7 8 6 6 7 6 4
17 15 16 18 17 14 10 8 6 5 3 4 5 5 6 6 5 6 7 6 7 6 7 9 9 7 8 5 7 6 10 9 9 8 7 9 7 6 10 7 9 9 8
17 16 15 16 15 17 16 9 8 7 5 8 9 8 9 8 7 6 8 8 7 8 7 8 8 10 9 6 8 8 10 11 10 8 10 7 7 8 9 10 10 10 9
15 14 16 15 16 14 16 12 13 9 8 8 7 9 10 10 10 10 9 9 9 9 9 8 9 10 8 11 9 8 10 11 11 13 11 7 10 11 10 10 10 12 11
13 13 13 15 15 15 15 14 11 11 10 9 9 12 11 9 9 10 11 11 11 10 12 11 12 9 9 10 11 9 8 9 10 10 13 11 11 12 12 10 12 9 15
13 14 14 16 14 14 13 13 13 13 13 11 11 11 9 10 9 10 10 11 11 12 13 12 11 12 11 12 9 10 10 10 11 10 13 14 14 12 9 10 6 8 8
Wind_Direction
149 130 145 145 148 151 143 136 121 122 132 139 139 138 135 135 134 135 136 125 117 103 97 99 98 98 96 89 89 90 95 101 113 121 130 129 126 123 122 137 224 132 105
136 141 151 149 149 151 149 137 128 128 132 135 137 135 132 135 135 134 136 128 118 106 105 106 109 110 107 105 105 110 116 123 129 142 173 180 163 159 163 170 294 74 134
138 139 155 145 146 151 148 142 134 130 132 133 134 134 135 139 140 138 139 136 127 119 115 111 110 111 109 106 105 100 96 98 115 238 248 242 128 155 209 210 215 164 183
131 143 141 143 144 146 145 143 136 135 135 134 135 137 140 141 146 148 147 144 135 127 123 117 112 108 107 111 117 116 108 160 261 262 239 278 339 143 184 208 224 220 212
140 146 129 146 150 148 150 146 135 132 131 133 135 141 144 145 145 147 150 149 145 141 135 122 114 109 106 110 118 141 206 244 256 251 278 314 336 125 180 234 225 213 217
141 151 132 143 152 147 143 144 135 133 131 130 135 141 145 145 146 144 148 154 159 157 145 128 121 114 114 119 134 220 238 245 254 244 253 216 264 106 197 259 255 270 215
147 138 147 139 147 147 147 150 149 146 142 139 144 147 148 147 149 147 152 163 172 165 150 141 133 131 141 163 186 228 249 259 262 230 251 257 275 67 271 268 271 272 235
142 147 138 140 145 144 147 153 155 147 146 146 147 153 149 150 155 158 163 177 177 170 164 165 175 196 206 223 240 248 258 264 239 272 252 250 86 310 278 275 277 277 239
141 147 154 157 151 148 145 155 154 151 153 153 152 152 154 159 166 172 175 190 202 204 198 209 231 261 265 255 249 252 256 259 275 181 263 243 66 340 293 287 283 276 263
143 142 154 152 171 174 156 160 162 158 155 151 157 165 172 183 192 201 213 212 228 233 235 242 254 263 268 263 261 267 265 254 251 267 191 44 7 317 302 294 288 279 257
133 145 145 159 173 188 151 147 163 163 158 161 177 185 188 220 182 192 193 126 228 254 255 255 261 270 273 252 236 249 257 242 261 246 117 50 7 3 0 350 343 332 291
154 167 165 175 170 164 157 153 193 172 187 196 194 178 233 240 249 304 34 188 234 244 251 250 256 260 250 254 181 204 235 286 264 319 73 33 13 6 357 357 357 344 332
160 178 193 175 173 199 164 171 174 179 184 188 218 229 220 259 211 221 233 202 221 202 237 199 206 225 233 264 305 292 306 270 354 347 84 38 14 2 11 4 6 0 357
178 194 189 185 187 176 144 200 180 198 175 216 182 211 242 236 215 270 274 267 225 248 260 242 285 323 266 312 283 278 304 341 9 355 71 61 17 7 8 1 1 359 2
227 194 195 182 201 146 163 213 239 200 189 121 196 196 259 279 296 286 296 285 297 295 348 290 273 325 33 358 344 322 288 280 249 231 241 118 43 21 9 1 355 347 345
226 207 183 186 180 184 171 223 259 263 185 225 254 228 219 259 257 288 259 275 268 288 254 249 238 138 132 231 301 326 315 312 283 282 262 152 129 95 33 7 351 341 336
351 176 171 171 156 208 137 221 258 278 296 252 259 241 249 245 236 267 261 277 294 293 259 184 148 138 150 278 326 347 290 256 257 240 264 301 158 154 107 29 347 333 334
26 46 110 127 130 173 269 296 322 328 299 264 253 255 248 245 246 256 264 276 285 240 225 175 161 162 73 322 266 230 239 250 261 231 263 288 320 317 166 121 338 319 336
43 32 43 37 53 36 28 326 311 315 277 303 303 279 303 291 274 275 283 274 244 238 212 189 179 184 197 214 242 232 256 265 244 266 290 281 233 287 320 109 190 253 263
45 38 46 34 18 16 60 68 60 86 35 11 328 325 306 290 285 257 237 230 219 224 209 202 201 195 209 215 246 246 247 240 234 263 250 251 253 275 282 309 309 255 184
43 40 43 34 35 24 20 25 15 19 356 354 355 354 336 325 296 274 267 227 229 230 233 200 203 208 214 222 252 249 242 210 230 244 232 262 280 278 307 289 282 311 279
46 36 28 43 27 32 29 18 11 348 7 360 12 347 351 328 301 275 273 247 234 236 223 214 221 230 247 239 273 288 281 262 240 221 243 287 283 290 294 289 305 294 284
46 33 35 36 33 31 18 20 5 359 341 12 354 342 358 327 312 288 273 270 256 259 227 230 233 248 268 237 247 286 279 279 304 286 257 228 293 281 295 279 288 284 284
35 31 33 31 30 33 22 25 22 4 359 353 343 351 318 330 321 307 288 280 269 270 274 245 247 264 248 273 264 222 271 297 290 293 283 266 220 256 262 281 289 282 285
30 25 28 23 26 20 20 17 5 2 348 336 333 332 318 320 308 300 299 289 277 270 273 269 275 254 269 270 282 282 261 258 263 271 289 296 294 279 273 306 294 317 279
20 16 14 13 17 14 8 5 2 348 335 332 331 314 312 318 310 303 326 315 296 281 275 269 261 262 271 281 282 287 279 279 277 268 258 263 285 295 287 294 297 279 301